FW0960 Weather Reports


time (UTC)temp
C
wind
direction
speed
KPH
gust
KPH
rain 1hr
cm
rain 24hr
cm
rain mn
cm
humidity
%
barometer
mb
20260503002110 13 200 0.0 3.2 0.00 0.00 0.00 63 1011.7
20260503001605 13 200 0.0 3.2 0.00 0.00 0.00 63 1011.7
20260503000040 13 200 0.0 1.6 0.00 0.00 0.00 61 1011.7
20260502235532 13 198 0.0 1.6 0.00 0.00 0.00 61 1011.7
20260502235033 13 198 1.6 1.6 0.00 0.00 0.00 60 1011.6
20260502234532 13 198 1.6 3.2 0.00 0.00 0.00 60 1011.6
20260502234030 13 198 1.6 3.2 0.00 0.00 0.00 61 1011.3
20260502233032 13 206 1.6 3.2 0.00 0.00 0.00 59 1011.0
20260502232534 13 205 1.6 3.2 0.00 0.00 0.00 59 1011.3
20260502232030 13 205 1.6 3.2 0.00 0.00 0.00 58 1011.4
20260502231534 13 199 1.6 3.2 0.00 0.00 0.00 59 1011.4
20260502231037 13 200 1.6 3.2 0.00 0.00 0.00 58 1011.4
20260502230030 13 208 1.6 3.2 0.00 0.00 0.00 57 1011.5
20260502225532 13 204 1.6 3.2 0.00 0.00 0.00 57 1011.7
20260502225032 13 204 1.6 4.8 0.00 0.00 0.00 58 1011.5
20260502224531 13 202 1.6 4.8 0.00 0.00 0.00 57 1011.5
20260502224030 13 204 1.6 3.2 0.00 0.00 0.00 59 1011.6
20260502223530 13 202 1.6 3.2 0.00 0.00 0.00 57 1011.7
20260502223034 13 198 1.6 3.2 0.00 0.00 0.00 56 1011.6
20260502222521 13 201 1.6 3.2 0.00 0.00 0.00 57 1011.6
20260502221516 13 203 0.0 1.6 0.00 0.00 0.00 58 1011.4
20260502221019 13 205 1.6 1.6 0.00 0.00 0.00 58 1011.6
20260502220525 13 201 1.6 3.2 0.00 0.00 0.00 60 1011.6
20260502215515 13 200 1.6 3.2 0.00 0.00 0.00 62 1011.7
20260502215011 13 200 1.6 3.2 0.00 0.00 0.00 59 1011.6
20260502214013 13 188 1.6 6.4 0.00 0.00 0.00 59 1011.7
20260502213511 13 210 1.6 6.4 0.00 0.00 0.00 57 1011.6
20260502213013 13 198 1.6 1.6 0.00 0.00 0.00 59 1011.8
20260502212511 13 197 1.6 3.2 0.00 0.00 0.00 59 1011.6
20260502212013 13 200 1.6 3.2 0.00 0.00 0.00 58 1011.7
20260502211511 13 198 1.6 6.4 0.00 0.00 0.00 58 1011.8
20260502211012 13 205 1.6 6.4 0.00 0.00 0.00 56 1011.6
20260502210510 13 213 1.6 4.8 0.00 0.00 0.00 60 1011.6
20260502210006 13 207 1.6 4.8 0.00 0.00 0.00 60 1011.4
20260502205503 13 216 1.6 6.4 0.00 0.00 0.00 62 1011.4
20260502204503 13 199 1.6 8.0 0.00 0.00 0.00 59 1011.2
20260502204008 13 207 1.6 8.0 0.00 0.00 0.00 59 1011.3
20260502203503 13 194 1.6 6.4 0.00 0.00 0.00 57 1011.5
20260502203006 13 180 1.6 6.4 0.00 0.00 0.00 61 1011.5
20260502202504 13 174 1.6 9.7 0.00 0.00 0.00 63 1011.3
20260502202003 13 173 1.6 9.7 0.00 0.00 0.00 63 1011.2
20260502201502 13 201 1.6 8.0 0.00 0.00 0.00 65 1011.4
20260502200502 13 215 1.6 8.0 0.00 0.00 0.00 66 1011.4
20260502200007 13 208 1.6 8.0 0.00 0.00 0.00 65 1011.6
20260502195503 13 178 1.6 9.7 0.00 0.00 0.00 66 1011.4
20260502195025 13 217 1.6 9.7 0.00 0.00 0.00 66 1011.5
20260502194001 13 219 1.6 9.7 0.00 0.00 0.00 68 1011.5
20260502193503 13 197 1.6 9.7 0.00 0.00 0.00 70 1011.7
20260502193003 13 242 1.6 6.4 0.00 0.00 0.00 69 1011.9
20260502192506 13 198 1.6 6.4 0.00 0.00 0.00 71 1012.1
20260502192006 13 198 1.6 6.4 0.00 0.00 0.00 71 1012.2
20260502191501 13 209 1.6 6.4 0.00 0.00 0.00 71 1012.2
20260502191005 13 209 1.6 6.4 0.00 0.00 0.00 73 1012.1
20260502190506 13 202 1.6 6.4 0.00 0.00 0.00 73 1012.1
20260502190008 12 202 1.6 6.4 0.00 0.00 0.00 73 1012.2
20260502185503 12 214 1.6 6.4 0.00 0.00 0.00 74 1012.5
20260502185007 12 211 1.6 8.0 0.00 0.00 0.00 73 1012.6
20260502184502 12 235 1.6 8.0 0.00 0.00 0.00 73 1012.8
20260502184001 12 190 1.6 8.0 0.00 0.00 0.00 74 1012.7
20260502183501 12 193 1.6 6.4 0.00 0.00 0.00 73 1012.8
20260502183008 12 186 1.6 6.4 0.00 0.00 0.00 74 1012.7
20260502182505 12 186 1.6 8.0 0.00 0.00 0.00 74 1012.8
20260502182007 12 188 1.6 8.0 0.00 0.00 0.00 74 1013.0
20260502181005 13 205 1.6 9.7 0.00 0.00 0.00 75 1013.0
20260502180503 13 188 1.6 9.7 0.00 0.00 0.00 74 1013.1
20260502170452 12 215 1.6 6.4 0.00 0.00 0.00 74 1012.9
20260502163444 11 225 1.6 4.8 0.00 0.00 0.00 76 1013.5
20260502162943 11 199 1.6 4.8 0.00 0.00 0.00 78 1013.3
20260502162446 11 196 1.6 4.8 0.00 0.00 0.00 80 1013.5
20260502161943 11 194 1.6 6.4 0.00 0.00 0.00 81 1013.4
20260502160943 11 205 1.6 6.4 0.00 0.00 0.00 80 1013.5
20260502160441 10 217 1.6 6.4 0.00 0.00 0.00 82 1013.6
20260502151940 11 208 1.6 4.8 0.00 0.00 0.00 74 1013.7
20260502151436 11 190 1.6 4.8 0.00 0.00 0.00 74 1013.7
20260502150441 11 192 1.6 4.8 0.00 0.00 0.00 75 1013.7
20260502130434 11 205 1.6 14.5 0.00 0.00 0.00 80 1013.8
20260502122926 11 207 1.6 4.8 0.00 0.00 0.00 83 1013.7
20260502122434 11 184 1.6 3.2 0.00 0.00 0.00 85 1013.7
20260502121922 11 170 0.0 3.2 0.00 0.00 0.00 86 1013.6
20260502121421 11 104 0.0 0.0 0.00 0.00 0.00 86 1013.7
20260502120418 10 90 0.0 0.0 0.00 0.00 0.00 88 1013.9
20260502115918 10 90 0.0 0.0 0.00 0.00 0.00 88 1014.0
20260502115415 10 90 0.0 0.0 0.00 0.00 0.00 88 1014.0
20260502114920 10 90 0.0 0.0 0.00 0.00 0.00 89 1013.9
20260502113907 10 90 0.0 0.0 0.00 0.00 0.00 89 1013.7
20260502113411 10 79 0.0 0.0 0.00 0.00 0.00 89 1013.7
20260502112901 10 79 0.0 0.0 0.00 0.00 0.00 89 1013.8
20260502112409 10 79 0.0 0.0 0.00 0.00 0.00 89 1013.8
20260502111353 10 79 0.0 0.0 0.00 0.00 0.00 90 1013.6
20260502110851 10 79 0.0 0.0 0.00 0.00 0.00 90 1013.6
20260502105832 9 79 0.0 0.0 0.00 0.00 0.00 91 1013.4
20260502105330 9 79 0.0 0.0 0.00 0.00 0.00 91 1013.4
20260502104316 9 79 0.0 0.0 0.00 0.00 0.00 91 1013.3
20260502103813 9 79 0.0 0.0 0.00 0.00 0.00 90 1013.3
20260502103311 9 79 0.0 0.0 0.00 0.00 0.00 90 1013.4
20260502102811 9 79 0.0 0.0 0.00 0.00 0.00 90 1013.2
20260502101803 9 79 0.0 0.0 0.00 0.00 0.00 90 1013.1
20260502100802 9 79 0.0 0.0 0.00 0.00 0.00 90 1013.0
20260502100303 9 79 0.0 0.0 0.00 0.00 0.00 90 1013.1
20260502091307 9 79 0.0 0.0 0.00 0.00 0.00 88 1012.7
20260502090807 9 79 0.0 0.0 0.00 0.00 0.00 88 1012.8
20260502071209 10 79 0.0 0.0 0.00 0.00 0.00 84 1012.9
20260502070706 10 79 0.0 0.0 0.00 0.00 0.00 85 1013.0
20260502070202 10 79 0.0 0.0 0.00 0.00 0.00 84 1013.0
20260502065706 11 79 0.0 0.0 0.00 0.00 0.00 84 1012.8
20260502065205 11 79 0.0 0.0 0.00 0.00 0.00 84 1012.8
20260502064152 11 79 0.0 0.0 0.00 0.00 0.00 84 1013.0
20260502063647 11 79 0.0 0.0 0.00 0.00 0.00 85 1013.2
20260502063148 11 79 0.0 0.0 0.00 0.00 0.00 85 1013.2
20260502062648 11 79 0.0 0.0 0.00 0.00 0.00 85 1013.2
20260502062139 11 79 0.0 0.0 0.00 0.00 0.00 85 1013.3
20260502061639 11 79 0.0 0.0 0.00 0.00 0.00 85 1013.2
20260502060642 11 79 0.0 0.0 0.00 0.00 0.00 86 1013.4
20260502060138 11 79 0.0 0.0 0.00 0.00 0.00 86 1013.4
20260502055638 11 79 0.0 0.0 0.00 0.00 0.00 86 1013.5
20260502055134 11 79 0.0 0.0 0.00 0.00 0.00 86 1013.6
20260502054138 11 79 0.0 0.0 0.00 0.00 0.00 85 1013.8
20260502053639 11 79 0.0 0.0 0.00 0.00 0.00 85 1013.8
20260502053137 11 79 0.0 0.0 0.00 0.00 0.00 85 1013.8
20260502052639 11 79 0.0 0.0 0.00 0.00 0.00 85 1013.9
20260502052139 11 79 0.0 0.0 0.00 0.00 0.00 84 1014.0
20260502051130 11 79 0.0 0.0 0.00 0.00 0.00 83 1014.0
20260502050132 11 79 0.0 0.0 0.00 0.00 0.00 82 1014.1
20260502045630 11 79 0.0 0.0 0.00 0.00 0.00 82 1014.1
20260502045132 11 79 0.0 0.0 0.00 0.00 0.00 81 1014.1
20260502044632 11 79 0.0 0.0 0.00 0.00 0.00 82 1014.0
20260502044132 11 79 0.0 0.0 0.00 0.00 0.00 82 1014.1
20260502043628 11 79 0.0 0.0 0.00 0.00 0.00 82 1014.1
20260502043130 11 79 0.0 0.0 0.00 0.00 0.00 82 1014.1
20260502042632 11 79 0.0 0.0 0.00 0.00 0.00 82 1014.1
20260502042131 11 79 0.0 0.0 0.00 0.00 0.00 82 1014.0
20260502041628 11 79 0.0 0.0 0.00 0.00 0.00 83 1014.1
20260502041129 11 79 0.0 0.0 0.00 0.00 0.00 83 1013.9
20260502040632 11 79 0.0 0.0 0.00 0.00 0.00 83 1014.0
20260502040143 11 79 0.0 0.0 0.00 0.00 0.00 83 1014.0
20260502035132 11 79 0.0 0.0 0.00 0.00 0.00 83 1014.1
20260502034629 11 79 0.0 0.0 0.00 0.00 0.00 83 1013.9
20260502034140 11 79 0.0 0.0 0.00 0.00 0.00 83 1014.0
20260502033627 11 79 0.0 0.0 0.00 0.00 0.00 83 1013.8
20260502033123 11 79 0.0 0.0 0.00 0.00 0.00 83 1013.7
20260502032624 11 79 0.0 0.0 0.00 0.00 0.00 83 1013.8
20260502031624 11 79 0.0 0.0 0.00 0.00 0.00 84 1013.6
20260502031122 11 79 0.0 0.0 0.00 0.00 0.00 85 1013.8
20260502030616 11 79 0.0 0.0 0.00 0.00 0.00 85 1013.7
20260502030125 11 79 0.0 0.0 0.00 0.00 0.00 85 1013.8
20260502025152 11 79 0.0 0.0 0.00 0.00 0.00 85 1013.9
20260502024106 11 79 0.0 0.0 0.00 0.00 0.00 85 1014.1
20260502023606 11 79 0.0 0.0 0.00 0.00 0.00 85 1014.1
20260502023106 11 79 0.0 0.0 0.00 0.00 0.00 85 1014.3
20260502022603 11 79 0.0 0.0 0.00 0.00 0.00 85 1014.2
20260502021603 11 79 0.0 0.0 0.00 0.00 0.00 85 1014.4
20260502021104 11 79 0.0 0.0 0.00 0.00 0.00 84 1014.5
20260502020601 11 79 0.0 0.0 0.00 0.00 0.00 84 1014.5
20260502015602 11 79 0.0 0.0 0.00 0.00 0.00 84 1014.4
20260502015102 11 79 0.0 0.0 0.00 0.00 0.00 83 1014.3
20260502014603 11 79 0.0 0.0 0.00 0.00 0.00 83 1014.4
20260502014109 11 79 0.0 0.0 0.00 0.00 0.00 83 1014.4
20260502013102 12 79 0.0 0.0 0.00 0.00 0.00 81 1014.1
20260502012605 12 79 0.0 0.0 0.00 0.00 0.00 81 1014.0
20260502012106 12 79 0.0 0.0 0.00 0.00 0.00 80 1014.1
20260502011604 12 79 0.0 0.0 0.00 0.00 0.00 80 1014.0
20260502011103 12 79 0.0 0.0 0.00 0.00 0.00 80 1014.1
20260502005608 12 79 0.0 0.0 0.00 0.00 0.00 78 1014.1
20260502005102 12 79 0.0 0.0 0.00 0.00 0.00 77 1014.0
20260502004603 12 79 0.0 0.0 0.00 0.00 0.00 76 1014.0
20260502004105 12 79 0.0 0.0 0.00 0.00 0.00 76 1013.9
20260502003605 12 79 0.0 0.0 0.00 0.00 0.00 75 1013.8
20260502003105 13 79 0.0 0.0 0.00 0.00 0.00 75 1013.7
20260502002604 13 78 0.0 1.6 0.00 0.00 0.00 74 1013.7